Location: Alvis C Story Elementary School
(33.0968°N, 96.6364°W)
Time: 09:29:11
(UTC+00:00)

CZ-4B R/B - Pass Details

Date: 08 December 2021
Orbit: 482 x 652 km, 97.9° (Epoch: 25 January)

Event Time Altitude Azimuth Distance (km) Brightness Sun altitude
Rises 12:06:10 0° 16° (NNE) 2,554 6.2 -14.7°
Reaches altitude 10° 12:08:14 10° 20° (NNE) 1,678 5.3 -14.2°
Maximum altitude 12:11:47 61° 101° (E) 566 3.2 -13.5°
Drops below altitude 10° 12:15:25 10° 182° (S) 1,720 5.6 -12.8°
Sets 12:17:34 0° 186° (S) 2,626 6.5 -12.4°
